User: anonymous   Login
Location: NJAA Observatory
(40.6819°N, 74.8979°W)
Time: 11:46:16
(UTC-05:00)
Language:

Cosmos 1461 - Orbit

View from above orbital plane
View from above orbital plane
View from above satellite
View from above satellite

Ground track
Ground track

The orbit data is extracted from the following two-line orbital elements,

1 14064U 83044A   17022.48207611  .00000394  00000-0  50057-4 0  9992
2 14064  65.0020  15.5333 0085045 105.8011 255.2502 14.93423904701590
Epoch (UTC): 22 January 2017 11:34:11
Eccentricity: 0.0085045
inclination: 65.0020°
perigee height: 528 km
apogee height: 646 km
right ascension of ascending node: 15.5333°
argument of perigee: 105.8011°
revolutions per day: 14.93423904
mean anomaly at epoch: 255.2502°
orbit number at epoch: 70159

The dashed part of the orbit path shows where the satellite is in the earth's shadow,  

DLR